Orbital Elements at Epoch 2457262.5 (2015-Aug-28.0) TDB
Reference: JPL K148/7 (heliocentric ecliptic J2000)
Element | Value | Uncertainty (1-sigma) | Units |
e | .6316152020645802 | 8.4318e-08 | |
a | 4.939864962861835 | 5.1746e-08 | au |
q | 1.819771156172117 | 4.122e-07 | au |
i | 11.49264281940788 | 5.647e-06 | deg |
node | 133.8401678570807 | 5.2173e-05 | deg |
peri | 47.28885502172881 | 5.3735e-05 | deg |
M | 25.59861596735432 | 5.64e-06 | deg |
tp | 2456977.342350093810 (2014-Nov-15.84235009) | 5.9039e-05 | TDB |
period | 4010.246260858229 10.98 | 6.3012e-05 1.725e-07 | d yr |
n | .08977004816730551 | 1.4105e-09 | deg/d |
Q | 8.059958769551553 | 8.443e-08 | au |
|
Additional Model Parameters
Parameter | Value | Uncertainty (1-sigma) |
A2 [EST] | -1.091448490022975E-10 | 2.455E-13 |
|
| | Orbit Determination Parameters
Additional Information
|